Погода в Алингсосе

Швеция     57°55′52″N   12°31′45″E
темп.,
°C
ветер,
м/с
пор.,
м/с
влажн.,
%
обл.,
%
осадки,
мм/ч
давл.,
гПа
погр.,
м
16 июня, ср
ср1623:00+8ююз269313 0.0 1018125
02:00+7ююз299810 0.0 1018218
05:00+7ююз299818 0.0 1017226
08:00+13юз47645 0.0 1017736
11:00+17зюз46395 0.0 10181126
14:00+20юз453266 0.0 10171198
17:00+20юз452958 0.0 10171052
20:00+17юз375317 0.0 1017770
17 июня, чт
чт1723:00+11ю2287100 0.0 101831
02:00+10ююв22965 0.0 101828
05:00+9ююв278948 0.0 1018146
08:00+16ююв36531 0.0 1017317
11:00+23ю354034 0.0 10161058
14:00+26ю364289 0.0 10151748
17:00+26ююз364540 0.0 10141327
20:00+25ю49565 0.0 10131067
18 июня, пт
пт1823:00+21ююв5136897 0.0 1013676
02:00+19ю51572100 0.0 1012628
05:00+19ююз411800 0.0 1012458
08:00+21ююз49721 0.0 1013598
11:00+24зюз57532 0.0 1013966
14:00+27юз47425 0.0 10131236
17:00+25зюз455130 0.2 1013966
20:00+20з23615 0.3 1013375
19 июня, сб
сб1923:00+15ююв0180100 0.2 101410
02:00+15св229696 2.8 101334
05:00+15св2498100 2.3 1012134
08:00+17вюв1298100 3.3 1011112
11:00+19ю139487 0.6 1010310
14:00+22юз59829 1.7 1010921
17:00+18зюз4778100 0.2 1011637
20:00+14зюз4786100 0.3 1013514
20 июня, вс
вс2023:00+12з3790100 0.0 1015488
02:00+12з248799 0.0 1016458
05:00+11ссз2387100 0.0 1016347
08:00+14св127128 0.0 1017575
11:00+19в1253100 0.0 1017968
14:00+23всв334029 0.0 10151412
17:00+25вюв243272 0.0 10131847
20:00+20св375987 0.0 1013346